DW9584 Weather Reports


time (UTC)temp
C
wind
direction
speed
KPH
gust
KPH
rain 1hr
cm
rain 24hr
cm
rain mn
cm
humidity
%
barometer
mb
20260508051510 12 286 0.0 4.8 0.00 0.46 0.00 71 1010.0
20260508050008 12 229 1.6 4.8 0.00 0.46 0.00 70 1009.9
20260508044504 12 219 0.0 6.4 0.00 0.46 0.00 70 1009.8
20260508043004 12 194 0.0 3.2 0.00 0.46 0.00 71 1009.9
20260508041519 11 241 0.0 4.8 0.00 0.46 0.00 72 1009.9
20260508040017 11 201 0.0 3.2 0.00 0.46 0.00 73 1009.8
20260508034521 10 238 0.0 1.6 0.00 0.46 0.46 74 1009.9
20260508033012 11 238 0.0 0.0 0.00 0.48 0.46 71 1009.9
20260508031508 11 239 0.0 3.2 0.00 0.48 0.46 69 1009.8
20260508030004 11 228 0.0 3.2 0.00 0.48 0.46 67 1009.8
20260508024505 10 183 0.0 6.4 0.00 0.48 0.46 71 1009.8
20260508023022 10 227 0.0 0.0 0.00 0.48 0.46 74 1009.5
20260508021517 9 227 0.0 0.0 0.00 0.48 0.46 73 1009.5
20260508020015 9 227 0.0 0.0 0.00 0.48 0.46 72 1009.6
20260508014513 10 227 0.0 0.0 0.00 0.48 0.46 70 1009.3
20260508013013 10 227 0.0 0.0 0.00 0.48 0.46 68 1009.3
20260508011509 11 227 0.0 0.0 0.00 0.48 0.46 64 1009.0
20260508010020 11 227 0.0 0.0 0.00 0.48 0.46 62 1009.0
20260508004536 12 227 0.0 0.0 0.00 0.48 0.46 59 1009.0
20260508003025 12 227 0.0 0.0 0.00 0.48 0.46 55 1008.7
20260508001527 13 227 0.0 0.0 0.00 0.48 0.46 50 1008.8
20260508000019 13 227 0.0 0.0 0.00 0.48 0.46 47 1008.8
20260507234524 15 227 0.0 3.2 0.00 0.48 0.46 43 1008.7
20260507233023 15 226 0.0 4.8 0.00 0.48 0.46 39 1008.6
20260507231512 16 265 0.0 8.0 0.00 0.48 0.46 38 1008.5
20260507230008 16 266 0.0 11.3 0.00 0.48 0.46 36 1008.2
20260507224528 16 261 0.0 3.2 0.00 0.48 0.46 36 1008.1
20260507223024 17 297 0.0 6.4 0.00 0.48 0.46 37 1008.1
20260507221522 17 354 0.0 4.8 0.00 0.48 0.46 35 1008.2
20260507220020 17 283 0.0 4.8 0.00 0.48 0.46 35 1008.2
20260507214525 17 302 1.6 12.9 0.00 0.48 0.46 35 1008.3
20260507213017 17 310 1.6 6.4 0.00 0.48 0.46 34 1008.3
20260507211512 17 240 1.6 11.3 0.00 0.48 0.46 34 1008.2
20260507210012 18 217 3.2 11.3 0.00 0.48 0.46 34 1008.1
20260507204509 17 297 1.6 9.7 0.00 0.48 0.46 38 1008.0
20260507203008 17 111 0.0 9.7 0.00 0.48 0.46 39 1007.9
20260507201512 17 354 1.6 6.4 0.00 0.48 0.46 37 1008.0
20260507200006 17 273 1.6 12.9 0.00 0.48 0.46 36 1008.2
20260507194502 17 359 3.2 12.9 0.00 0.48 0.46 36 1008.4
20260507193021 17 354 1.6 9.7 0.00 0.48 0.46 40 1008.7
20260507191516 17 160 1.6 11.3 0.00 0.48 0.46 38 1008.7
20260507190017 17 160 1.6 6.4 0.00 0.48 0.46 42 1009.1
20260507184511 17 1 1.6 6.4 0.00 0.48 0.46 40 1009.4
20260507183025 17 328 3.2 11.3 0.00 0.48 0.46 44 1009.4
20260507181507 17 163 0.0 11.3 0.00 0.48 0.46 41 1009.3
20260507180005 17 346 3.2 6.4 0.00 0.48 0.46 46 1009.6
20260507174541 16 295 1.6 11.3 0.00 0.48 0.46 46 1009.9
20260507173024 16 11 1.6 6.4 0.00 0.48 0.46 42 1010.1
20260507171522 16 193 1.6 8.0 0.00 0.48 0.46 44 1010.3
20260507170018 16 10 3.2 8.0 0.00 0.48 0.46 46 1010.4
20260507164513 16 300 1.6 8.0 0.00 0.48 0.46 47 1010.6
20260507163018 16 288 1.6 8.0 0.00 0.48 0.46 45 1010.9
20260507161509 15 356 0.0 6.4 0.00 0.51 0.46 57 1011.0
20260507160011 15 39 0.0 6.4 0.00 0.56 0.46 58 1011.1
20260507154524 14 57 1.6 6.4 0.00 0.61 0.46 58 1011.5
20260507153027 13 84 0.0 11.3 0.00 0.64 0.46 59 1011.7
20260507151521 13 25 1.6 11.3 0.00 0.66 0.46 64 1012.0
20260507150019 13 26 0.0 6.4 0.00 0.66 0.46 66 1012.1
20260507144528 13 77 1.6 11.3 0.00 0.66 0.46 68 1012.2
20260507143018 12 199 1.6 4.8 0.00 0.66 0.46 72 1012.3
20260507141514 12 359 1.6 6.4 0.00 0.66 0.46 77 1012.4
20260507140037 11 156 0.0 6.4 0.00 0.66 0.46 80 1012.5
20260507134524 11 314 0.0 4.8 0.00 0.66 0.46 82 1012.5
20260507133024 11 169 0.0 4.8 0.00 0.66 0.46 85 1012.5
20260507131541 11 27 1.6 4.8 0.00 0.66 0.46 87 1012.4
20260507130020 10 268 0.0 3.2 0.00 0.66 0.46 91 1012.5
20260507124522 10 305 1.6 6.4 0.00 0.66 0.46 93 1012.5
20260507123018 10 329 0.0 8.0 0.00 0.66 0.46 94 1012.5
20260507121504 10 314 1.6 4.8 0.00 0.66 0.46 94 1012.3
20260507120005 10 247 0.0 0.0 0.00 0.66 0.46 95 1012.2
20260507114504 10 247 0.0 0.0 0.00 0.66 0.46 94 1012.2
20260507113004 10 232 0.0 3.2 0.00 0.66 0.46 94 1012.2
20260507111506 10 266 0.0 3.2 0.00 0.66 0.46 94 1012.0
20260507110004 10 266 0.0 3.2 0.00 0.66 0.46 94 1011.8
20260507104506 10 227 0.0 1.6 0.00 0.66 0.46 94 1011.6
20260507103004 10 359 0.0 3.2 0.00 0.66 0.46 94 1011.4
20260507101503 10 359 0.0 0.0 0.00 0.66 0.46 94 1011.3
20260507100009 9 359 0.0 0.0 0.03 0.66 0.46 94 1011.2
20260507094504 9 359 0.0 0.0 0.03 0.66 0.46 94 1011.2
20260507093005 9 359 0.0 0.0 0.03 0.66 0.46 94 1011.2
20260507091505 9 359 0.0 0.0 0.03 0.66 0.46 94 1011.0
20260507090007 9 359 0.0 3.2 0.00 0.64 0.43 93 1010.7
20260507084514 9 6 0.0 3.2 0.00 0.64 0.43 93 1010.9
20260507083017 10 34 0.0 3.2 0.00 0.64 0.43 93 1010.9
20260507081508 10 340 0.0 3.2 0.00 0.64 0.43 93 1010.7
20260507080009 10 13 0.0 3.2 0.00 0.64 0.43 93 1011.1
20260507074510 10 345 0.0 3.2 0.00 0.64 0.43 93 1010.9
20260507073008 10 249 1.6 3.2 0.00 0.64 0.43 93 1011.1
20260507071516 10 169 0.0 3.2 0.00 0.64 0.43 93 1011.2
20260507070019 10 243 0.0 6.4 0.03 0.64 0.43 93 1011.5
20260507064512 10 272 0.0 3.2 0.05 0.64 0.43 92 1011.2
20260507063014 10 266 0.0 3.2 0.36 0.64 0.43 92 1010.8
20260507061513 11 129 0.0 3.2 0.43 0.64 0.43 92 1010.8
20260507060014 11 335 0.0 3.2 0.41 0.61 0.41 91 1011.2
20260507054512 12 62 0.0 3.2 0.38 0.58 0.38 90 1010.7
20260507053012 12 326 1.6 8.0 0.08 0.28 0.08 89 1011.1